Preview of NWS' New Version of Forecast
This preview is not operational and should not be used for support decisions.

Regional Weather Roundup (RWR)

Issued by National Weather Service (NWS)

                            
000
ASUS43 KLSX 181957
RWRMO 

WEATHER SUMMARY FOR MISSOURI
NATIONAL WEATHER SERVICE SPRINGFIELD MO
300 PM CDT SAT MAY 18 2019

NOTE: "FAIR" INDICATES FEW OR NO CLOUDS BELOW 12,000 FEET WITH NO
       SIGNIFICANT WEATHER AND/OR OBSTRUCTIONS TO VISIBILITY.
       CURRENT SKY AND/OR WEATHER CONDITIONS ARE NOT AVAILABLE FOR
       CHILLICOTHE AND FARMINGTON.

MOZ001>031-035>038-043-044-053-054-182100-
...NORTHERN AND WESTERN MISSOURI...
  
CITY           SKY/WX    TMP DP  RH WIND       PRES   REMARKS
KANSAS CTY INT LGT RAIN  65  64  97 SW15      29.66R FOG              
LEE'S SUMMIT   RAIN      64  62  93 NW10      29.64R FOG              
ST JOSEPH      LGT RAIN  67  65  93 SW7       29.65R                  
CHILLICOTHE      N/A     71  68  90 SE6       29.61F                  
     
$$
MOZ066>068-077>081-088>096-101>105-182100-
...SOUTHWEST MISSOURI...
  
CITY           SKY/WX    TMP DP  RH WIND       PRES   REMARKS
SPRINGFIELD    CLOUDY    78  64  61 S24G43    29.68F                  
               
$$
MOZ032>034-039>042-045>050-055>058-069>072-182100-
...CENTRAL MISSOURI...  
  
CITY           SKY/WX    TMP DP  RH WIND       PRES   REMARKS
COLUMBIA       NOT AVBL                                               
JEFFERSON CITY CLOUDY    84  63  49 S18G29    29.67F                  
ROLLA          CLOUDY    81  61  50 S24G41    29.74S                  
SEDALIA        CLOUDY    73  66  78 S16G24    29.66F                  
WARRENSBURG    TSTM      70  66  88 S9G24     29.64R                  
               
$$
MOZ051-052-059>065-182100-
...EAST CENTRAL MISSOURI...
  
CITY           SKY/WX    TMP DP  RH WIND       PRES   REMARKS
ST LOUIS INTL  CLOUDY    88  56  33 S22G31    29.75F                  
                   
$$
MOZ072>076-082>087-097>100-106>115-182100-
...SOUTH CENTRAL AND SOUTHEAST MISSOURI...
  
CITY           SKY/WX    TMP DP  RH WIND       PRES   REMARKS
CAPE GIRARDEAU FAIR      86  60  41 S20G30    29.81F                  
POPLAR BLUFF   FAIR      86  61  42 S13G26    29.79F                  
WEST PLAINS    CLOUDY    79  64  60 S13G28    29.80F                  
                                       
$$